sat.trackr.live / text

‹ back to catalog

QIANFAN-58

NORAD 62788 · 2025-016D

PAYLOAD ACTIVE UNKNOWN

§ Identity

Operator
Country
PRC
Launch date
2025-01-23
Launch site
TAISC
Launch vehicle
Mass (kg)
RCS (m²)

External: N2YO · Heavens-Above · Gunter

§ Orbital elements

Epoch: 2026-05-25T02:32:59.178336Z

Period
106.59 min
Inclination
88.9708°
Eccentricity
0.0011807
Mean motion
13.51011940 rev/d
Perigee alt
1,059.7 km
Apogee alt
1,077.3 km
Semi-major
7,446.7 km
B*
1.4594e-4
RAAN
86.0464°
Arg perigee
226.1538°
Mean anomaly
133.8638°
Rev number
6,930

§ Raw data

QIANFAN-581 62788U 25016D   26145.10624049  .00000106  00000+0  14594-3 0  99912 62788  88.9708  86.0464 0011807 226.1538 133.8638 13.51011940 69300

JSON: /api/v1/satellites/62788 · /tle

For live sub-satellite position, see the globe view (requires WebGL).

§ Visibility from observer

Set your observer location to see the next 7 days of passes ≥ 10°. The values pass through the URL so the page stays shareable.

No JS? Fill the form by hand. The geolocation button needs JavaScript.